When you browse on this site, cookies collect data to enhance your experience and personalize the content and advertising you see.
Visit our Privacy Policy to learn more. By continuing to use the site, you agree to this use of cookies and data.
  • In Hungary
  • List of Countries
  • For 7 days
  • Water Temperature
  • Weather Map
  • News
  • Weather Widgets
  • user-avatar
    Login

    Hourly Weather Marfinka

    Today, 17 October, Thursday

    Time Temperature Precipitation Wind Pressure Humidity
    00:00 +15°C° 0 mm 4 mps 762 mmHg 76%
    01:00 +14°C° 0 mm 4 mps 762 mmHg 78%
    02:00 +14°C° 0 mm 4 mps 762 mmHg 81%
    03:00 +13°C° 0 mm 4 mps 762 mmHg 83%
    04:00 +13°C° 0 mm 4 mps 762 mmHg 84%
    05:00 +12°C° 0 mm 4 mps 762 mmHg 86%
    06:00 +12°C° 0 mm 4 mps 762 mmHg 87%
    07:00 +13°C° 0 mm 4 mps 762 mmHg 83%
    08:00 +13°C° 0 mm 5 mps 762 mmHg 78%
    09:00 +14°C° 0 mm 5 mps 762 mmHg 73%
    10:00 +16°C° 0 mm 5 mps 762 mmHg 66%
    11:00 +19°C° 0 mm 5 mps 762 mmHg 58%
    12:00 +20°C° 0 mm 5 mps 762 mmHg 51%
    13:00 +21°C° 0 mm 5 mps 761 mmHg 48%
    14:00 +22°C° 0 mm 5 mps 761 mmHg 45%
    15:00 +22°C° 0 mm 5 mps 760 mmHg 43%
    16:00 +21°C° 0 mm 4 mps 760 mmHg 47%
    17:00 +20°C° 0 mm 4 mps 760 mmHg 51%
    18:00 +19°C° 0 mm 3 mps 760 mmHg 55%
    19:00 +18°C° 0 mm 3 mps 760 mmHg 58%
    20:00 +17°C° 0 mm 3 mps 760 mmHg 61%
    21:00 +15°C° 0 mm 4 mps 760 mmHg 63%
    22:00 +16°C° 0 mm 3 mps 760 mmHg 66%
    23:00 +14°C° 0 mm 3 mps 760 mmHg 69%

    Tomorrow, 18 October, Friday

    Time Temperature Precipitation Wind Pressure Humidity
    00:00 +14°C° 0 mm 3 mps 760 mmHg 71%
    01:00 +13°C° 0 mm 3 mps 759 mmHg 74%
    02:00 +13°C° 0 mm 3 mps 759 mmHg 77%
    03:00 +12°C° 0 mm 3 mps 759 mmHg 80%
    04:00 +13°C° 0 mm 2 mps 759 mmHg 82%
    05:00 +12°C° 0 mm 2 mps 759 mmHg 84%
    06:00 +12°C° 0 mm 2 mps 759 mmHg 86%
    07:00 +12°C° 0 mm 3 mps 759 mmHg 81%
    08:00 +13°C° 0 mm 3 mps 759 mmHg 77%
    09:00 +14°C° 0 mm 3 mps 759 mmHg 73%
    10:00 +16°C° 0 mm 3 mps 759 mmHg 66%
    11:00 +18°C° 0 mm 3 mps 759 mmHg 59%
    12:00 +20°C° 0 mm 3 mps 759 mmHg 53%
    13:00 +21°C° 0 mm 3 mps 759 mmHg 50%
    14:00 +21°C° 0 mm 3 mps 758 mmHg 48%
    15:00 +23°C° 0 mm 2 mps 758 mmHg 45%
    16:00 +21°C° 0 mm 2 mps 758 mmHg 49%
    17:00 +20°C° 0 mm 2 mps 758 mmHg 52%
    18:00 +19°C° 0 mm 2 mps 758 mmHg 56%
    19:00 +18°C° 0 mm 2 mps 758 mmHg 58%
    20:00 +17°C° 0 mm 2 mps 758 mmHg 60%
    21:00 +17°C° 0 mm 2 mps 758 mmHg 62%
    22:00 +16°C° 0 mm 2 mps 758 mmHg 63%
    23:00 +16°C° 0 mm 2 mps 758 mmHg 65%

    Day after tomorrow, 19 October, Saturday

    Time Temperature Precipitation Wind Pressure Humidity
    00:00 +15°C° 0 mm 2 mps 759 mmHg 66%
    01:00 +15°C° 0 mm 2 mps 759 mmHg 68%
    02:00 +14°C° 0 mm 2 mps 759 mmHg 69%
    03:00 +14°C° 0 mm 2 mps 759 mmHg 70%
    04:00 +14°C° 0 mm 2 mps 759 mmHg 70%
    05:00 +13°C° 0 mm 2 mps 759 mmHg 71%
    06:00 +13°C° 0 mm 2 mps 759 mmHg 72%
    07:00 +13°C° 0 mm 3 mps 760 mmHg 67%
    08:00 +14°C° 0 mm 3 mps 760 mmHg 63%
    09:00 +16°C° 0 mm 3 mps 760 mmHg 58%
    10:00 +18°C° 0 mm 3 mps 760 mmHg 52%
    11:00 +20°C° 0 mm 3 mps 760 mmHg 46%
    12:00 +21°C° 0 mm 3 mps 761 mmHg 40%
    13:00 +22°C° 0 mm 3 mps 760 mmHg 38%
    14:00 +22°C° 0 mm 3 mps 760 mmHg 35%
    15:00 +24°C° 0 mm 3 mps 760 mmHg 33%
    16:00 +22°C° 0 mm 3 mps 760 mmHg 37%
    17:00 +20°C° 0 mm 3 mps 760 mmHg 41%
    18:00 +19°C° 0 mm 2 mps 760 mmHg 45%
    19:00 +18°C° 0 mm 3 mps 761 mmHg 48%
    20:00 +17°C° 0 mm 3 mps 761 mmHg 51%
    21:00 +16°C° 0 mm 3 mps 761 mmHg 54%
    22:00 +16°C° 0 mm 3 mps 761 mmHg 56%
    23:00 +14°C° 0 mm 3 mps 761 mmHg 58%

    20 October, Sunday

    Time Temperature Precipitation Wind Pressure Humidity
    00:00 +14°C° 0 mm 3 mps 761 mmHg 60%
    01:00 +13°C° 0 mm 3 mps 762 mmHg 62%
    02:00 +13°C° 0 mm 3 mps 762 mmHg 65%
    03:00 +12°C° 0 mm 3 mps 762 mmHg 67%
    04:00 +12°C° 0 mm 3 mps 762 mmHg 69%
    05:00 +12°C° 0 mm 3 mps 762 mmHg 71%
    06:00 +11°C° 0 mm 3 mps 762 mmHg 74%
    07:00 +12°C° 0 mm 3 mps 763 mmHg 69%
    08:00 +13°C° 0 mm 4 mps 763 mmHg 65%
    09:00 +14°C° 0 mm 4 mps 763 mmHg 61%
    10:00 +17°C° 0 mm 4 mps 763 mmHg 54%
    11:00 +19°C° 0 mm 4 mps 763 mmHg 48%
    12:00 +21°C° 0 mm 4 mps 763 mmHg 41%
    13:00 +21°C° 0 mm 4 mps 763 mmHg 40%
    14:00 +22°C° 0 mm 4 mps 763 mmHg 39%
    15:00 +22°C° 0 mm 4 mps 762 mmHg 38%
    16:00 +21°C° 0 mm 4 mps 762 mmHg 42%
    17:00 +19°C° 0 mm 3 mps 762 mmHg 47%
    18:00 +18°C° 0 mm 3 mps 762 mmHg 51%
    19:00 +17°C° 0 mm 3 mps 763 mmHg 56%
    20:00 +17°C° 0 mm 4 mps 763 mmHg 61%
    21:00 +15°C° 0 mm 4 mps 763 mmHg 66%
    22:00 +14°C° 0 mm 4 mps 763 mmHg 69%
    23:00 +14°C° 0 mm 3 mps 763 mmHg 72%

    21 October, Monday

    Time Temperature Precipitation Wind Pressure Humidity
    00:00 +13°C° 0 mm 3 mps 763 mmHg 75%
    01:00 +13°C° 0 mm 3 mps 763 mmHg 76%
    02:00 +12°C° 0 mm 3 mps 763 mmHg 77%
    03:00 +12°C° 0 mm 3 mps 763 mmHg 77%
    04:00 +11°C° 0 mm 3 mps 763 mmHg 77%
    05:00 +11°C° 0 mm 3 mps 763 mmHg 76%
    06:00 +11°C° 0 mm 3 mps 764 mmHg 76%
    07:00 +12°C° 0 mm 3 mps 764 mmHg 71%
    08:00 +12°C° 0 mm 4 mps 764 mmHg 67%
    09:00 +13°C° 0 mm 4 mps 764 mmHg 62%
    10:00 +15°C° 0 mm 4 mps 764 mmHg 57%
    11:00 +18°C° 0 mm 4 mps 764 mmHg 51%
    12:00 +20°C° 0 mm 4 mps 764 mmHg 45%
    13:00 +20°C° 0 mm 4 mps 763 mmHg 44%
    14:00 +20°C° 0 mm 4 mps 763 mmHg 43%
    15:00 +21°C° 0 mm 4 mps 763 mmHg 42%
    16:00 +20°C° 0 mm 3 mps 763 mmHg 46%
    17:00 +18°C° 0 mm 3 mps 763 mmHg 49%
    18:00 +17°C° 0 mm 3 mps 762 mmHg 53%
    19:00 +16°C° 0 mm 3 mps 763 mmHg 56%
    20:00 +16°C° 0 mm 3 mps 763 mmHg 58%
    21:00 +14°C° 0 mm 3 mps 763 mmHg 60%
    22:00 +13°C° 0 mm 3 mps 763 mmHg 62%
    23:00 +13°C° 0 mm 3 mps 763 mmHg 64%

    22 October, Tuesday

    Time Temperature Precipitation Wind Pressure Humidity
    00:00 +13°C° 0 mm 2 mps 763 mmHg 66%
    01:00 +13°C° 0 mm 2 mps 763 mmHg 68%
    02:00 +12°C° 0 mm 2 mps 763 mmHg 69%
    03:00 +12°C° 0 mm 2 mps 762 mmHg 70%
    04:00 +12°C° 0 mm 2 mps 762 mmHg 71%
    05:00 +10°C° 0 mm 2 mps 763 mmHg 73%
    06:00 +10°C° 0 mm 2 mps 763 mmHg 74%
    07:00 +12°C° 0 mm 2 mps 763 mmHg 70%
    08:00 +12°C° 0 mm 3 mps 763 mmHg 66%
    09:00 +13°C° 0 mm 3 mps 763 mmHg 62%
    10:00 +14°C° 0 mm 3 mps 762 mmHg 55%
    11:00 +17°C° 0 mm 3 mps 762 mmHg 48%
    12:00 +18°C° 0 mm 3 mps 762 mmHg 42%
    13:00 +19°C° 0 mm 3 mps 762 mmHg 39%
    14:00 +20°C° 0 mm 3 mps 761 mmHg 37%
    15:00 +20°C° 0 mm 2 mps 761 mmHg 35%
    16:00 +19°C° 0 mm 2 mps 761 mmHg 38%
    17:00 +18°C° 0 mm 2 mps 761 mmHg 42%
    18:00 +16°C° 0 mm 1 mps 760 mmHg 45%
    19:00 +16°C° 0 mm 1 mps 760 mmHg 48%
    20:00 +15°C° 0 mm 1 mps 760 mmHg 50%
    21:00 +15°C° 0 mm 1 mps 760 mmHg 52%
    22:00 +14°C° 0 mm 1 mps 760 mmHg 55%
    23:00 +14°C° 0 mm 1 mps 760 mmHg 58%
    Show more